Time,TemperatureF,DewpointF,PressureIn,WindDirection,WindDirectionDegrees,WindSpeedMPH,WindSpeedGustMPH,Humidity,HourlyPrecipIn,Conditions,Clouds,dailyrainin,SoftwareType,DateUTC
2013-03-28 00:00:00,46.0,30.7,29.93,West,273,2.7,10.1,55,0.00,,,0.00,WUHU21623XXSP,2013-03-28 04:00:00,
2013-03-28 00:03:00,46.0,30.7,29.93,NW,318,6.5,10.1,55,0.00,,,0.00,WUHU21623XXSP,2013-03-28 04:03:00,
2013-03-28 00:05:00,45.9,30.7,29.94,North,3,9.6,9.6,55,0.00,,,0.00,WUHU21623XXSP,2013-03-28 04:05:00,
2013-03-28 00:11:00,45.7,30.4,29.93,North,3,2.2,9.6,55,0.00,,,0.00,WUHU21623XXSP,2013-03-28 04:11:00,
2013-03-28 00:16:00,45.7,30.4,29.93,NNW,330,5.2,7.4,55,0.00,,,0.00,WUHU21623XXSP,2013-03-28 04:16:00,
2013-03-28 00:22:00,45.5,30.2,29.94,NW,318,5.4,7.4,55,0.00,,,0.00,WUHU21623XXSP,2013-03-28 04:22:00,
2013-03-28 00:29:00,45.3,30.2,29.93,NNW,341,7.6,7.6,55,0.00,,,0.00,WUHU21623XXSP,2013-03-28 04:29:00,
2013-03-28 00:35:00,45.3,30.0,29.94,NW,318,2.9,7.6,55,0.00,,,0.00,WUHU21623XXSP,2013-03-28 04:35:00,
2013-03-28 00:41:00,45.1,30.3,29.93,SSW,206,2.5,6.7,56,0.00,,,0.00,WUHU21623XXSP,2013-03-28 04:41:00,
2013-03-28 00:48:00,45.1,30.3,29.94,NNW,341,2.9,3.1,56,0.00,,,0.00,WUHU21623XXSP,2013-03-28 04:48:00,
2013-03-28 00:54:00,45.0,30.2,29.93,WNW,296,3.8,8.5,56,0.00,,,0.00,WUHU21623XXSP,2013-03-28 04:54:00,
2013-03-28 01:00:00,45.0,30.2,29.93,NNW,341,6.3,12.8,56,0.00,,,0.00,WUHU21623XXSP,2013-03-28 05:00:00,
2013-03-28 01:07:00,44.6,30.3,29.93,North,3,8.1,8.5,57,0.00,,,0.00,WUHU21623XXSP,2013-03-28 05:07:00,
2013-03-28 01:14:00,44.4,30.1,29.93,NNW,341,9.2,9.2,57,0.00,,,0.00,WUHU21623XXSP,2013-03-28 05:14:00,
2013-03-28 01:20:00,44.2,29.9,29.93,NW,318,4.7,9.2,57,0.00,,,0.00,WUHU21623XXSP,2013-03-28 05:20:00,
2013-03-28 01:26:00,44.2,29.9,29.93,NW,304,5.5,8.9,57,0.00,,,0.00,WUHU21623XXSP,2013-03-28 05:26:00,
2013-03-28 01:33:00,44.2,30.4,29.93,NNW,341,3.8,8.9,58,0.00,,,0.00,WUHU21623XXSP,2013-03-28 05:33:00,
2013-03-28 01:39:00,44.1,30.2,29.93,NNW,341,2.0,6.3,58,0.00,,,0.00,WUHU21623XXSP,2013-03-28 05:39:00,
2013-03-28 01:46:00,44.1,30.2,29.93,North,3,3.1,8.3,58,0.00,,,0.00,WUHU21623XXSP,2013-03-28 05:46:00,
2013-03-28 01:52:00,43.9,30.0,29.93,NNW,341,2.9,5.4,58,0.00,,,0.00,WUHU21623XXSP,2013-03-28 05:52:00,
2013-03-28 02:00:00,43.9,30.0,29.93,NNW,341,1.6,3.1,58,0.00,,,0.00,WUHU21623XXSP,2013-03-28 06:00:00,
2013-03-28 02:07:00,43.9,30.0,29.93,NNW,328,3.2,5.1,58,0.00,,,0.00,WUHU21623XXSP,2013-03-28 06:07:00,
2013-03-28 02:14:00,43.7,29.9,29.94,NNW,341,8.3,8.3,58,0.00,,,0.00,WUHU21623XXSP,2013-03-28 06:14:00,
2013-03-28 02:20:00,43.7,29.9,29.93,WNW,296,1.6,8.3,58,0.00,,,0.00,WUHU21623XXSP,2013-03-28 06:20:00,
2013-03-28 02:27:00,43.7,29.9,29.93,NNW,341,6.3,6.3,58,0.00,,,0.00,WUHU21623XXSP,2013-03-28 06:27:00,
2013-03-28 02:33:00,43.9,30.0,29.93,North,355,4.9,6.7,58,0.00,,,0.00,WUHU21623XXSP,2013-03-28 06:33:00,
2013-03-28 02:39:00,43.7,30.3,29.93,NW,318,2.0,6.7,59,0.00,,,0.00,WUHU21623XXSP,2013-03-28 06:39:00,
2013-03-28 02:46:00,43.7,30.3,29.93,WNW,296,7.4,7.4,59,0.00,,,0.00,WUHU21623XXSP,2013-03-28 06:46:00,
2013-03-28 02:52:00,43.7,30.3,29.94,NNW,341,1.8,7.4,59,0.00,,,0.00,WUHU21623XXSP,2013-03-28 06:52:00,
2013-03-28 03:00:00,43.7,30.3,29.93,NNW,341,2.9,3.6,59,0.00,,,0.00,WUHU21623XXSP,2013-03-28 07:00:00,
2013-03-28 03:07:00,43.7,30.3,29.93,NNW,341,6.3,6.3,59,0.00,,,0.00,WUHU21623XXSP,2013-03-28 07:07:00,
2013-03-28 03:14:00,43.5,30.1,29.93,NNW,341,4.3,6.3,59,0.00,,,0.00,WUHU21623XXSP,2013-03-28 07:14:00,
2013-03-28 03:20:00,43.5,30.1,29.92,WSW,251,3.4,4.3,59,0.00,,,0.00,WUHU21623XXSP,2013-03-28 07:20:00,
2013-03-28 03:26:00,43.3,30.1,29.93,NNE,26,2.7,4.3,59,0.00,,,0.00,WUHU21623XXSP,2013-03-28 07:26:00,
2013-03-28 03:33:00,43.3,29.9,29.93,NW,318,4.7,4.7,59,0.00,,,0.00,WUHU21623XXSP,2013-03-28 07:33:00,
2013-03-28 03:39:00,43.3,29.9,29.93,NW,318,3.6,4.7,59,0.00,,,0.00,WUHU21623XXSP,2013-03-28 07:39:00,
2013-03-28 03:48:00,43.2,29.8,29.92,WNW,296,4.7,4.7,59,0.00,,,0.00,WUHU21623XXSP,2013-03-28 07:48:00,
2013-03-28 03:54:00,43.2,30.2,29.93,NW,318,2.5,5.1,60,0.00,,,0.00,WUHU21623XXSP,2013-03-28 07:54:00,
2013-03-28 04:00:00,43.2,30.2,29.93,West,273,2.2,5.1,60,0.00,,,0.00,WUHU21623XXSP,2013-03-28 08:00:00,
2013-03-28 04:07:00,43.2,30.2,29.92,NW,318,4.5,7.2,60,0.00,,,0.00,WUHU21623XXSP,2013-03-28 08:07:00,
2013-03-28 04:14:00,43.2,30.2,29.92,NW,318,2.2,7.2,60,0.00,,,0.00,WUHU21623XXSP,2013-03-28 08:14:00,
2013-03-28 04:20:00,43.2,30.2,29.92,NW,318,2.5,3.8,60,0.00,,,0.00,WUHU21623XXSP,2013-03-28 08:20:00,
2013-03-28 04:27:00,43.3,30.4,29.92,NNW,341,1.1,2.9,60,0.00,,,0.00,WUHU21623XXSP,2013-03-28 08:27:00,
2013-03-28 04:33:00,43.3,30.4,29.92,NW,318,3.6,3.6,60,0.00,,,0.00,WUHU21623XXSP,2013-03-28 08:33:00,
2013-03-28 04:39:00,43.3,30.2,29.93,NW,318,3.8,3.8,60,0.00,,,0.00,WUHU21623XXSP,2013-03-28 08:39:00,
2013-03-28 04:46:00,43.3,30.4,29.93,NNW,341,3.8,3.8,60,0.00,,,0.00,WUHU21623XXSP,2013-03-28 08:46:00,
2013-03-28 04:52:00,43.3,30.4,29.93,NW,318,4.0,4.0,60,0.00,,,0.00,WUHU21623XXSP,2013-03-28 08:52:00,
2013-03-28 05:00:00,43.2,30.2,29.93,NW,318,4.0,4.0,60,0.00,,,0.00,WUHU21623XXSP,2013-03-28 09:00:00,
2013-03-28 05:05:00,43.3,30.4,29.93,North,3,1.3,4.0,60,0.00,,,0.00,WUHU21623XXSP,2013-03-28 09:05:00,
2013-03-28 05:12:00,43.3,30.4,29.93,NW,318,1.3,2.5,60,0.00,,,0.00,WUHU21623XXSP,2013-03-28 09:12:00,
2013-03-28 05:18:00,43.5,30.6,29.93,WNW,296,3.1,3.1,60,0.00,,,0.00,WUHU21623XXSP,2013-03-28 09:18:00,
2013-03-28 05:25:00,43.5,30.6,29.93,WNW,296,1.1,3.1,60,0.00,,,0.00,WUHU21623XXSP,2013-03-28 09:25:00,
2013-03-28 05:31:00,43.5,30.6,29.93,WNW,296,0.0,1.8,60,0.00,,,0.00,WUHU21623XXSP,2013-03-28 09:31:00,
2013-03-28 05:38:00,43.5,30.6,29.93,WNW,296,2.7,2.7,60,0.00,,,0.00,WUHU21623XXSP,2013-03-28 09:38:00,
2013-03-28 05:44:00,43.5,30.6,29.93,NW,318,1.6,2.7,60,0.00,,,0.00,WUHU21623XXSP,2013-03-28 09:44:00,
2013-03-28 05:50:00,43.5,30.6,29.94,NW,318,1.3,1.6,60,0.00,,,0.00,WUHU21623XXSP,2013-03-28 09:50:00,
2013-03-28 05:57:00,43.3,30.4,29.93,WNW,296,0.7,1.3,60,0.00,,,0.00,WUHU21623XXSP,2013-03-28 09:57:00,
2013-03-28 06:03:00,43.3,30.4,29.93,West,273,2.2,2.2,60,0.00,,,0.00,WUHU21623XXSP,2013-03-28 10:03:00,
2013-03-28 06:08:00,43.3,30.4,29.94,NW,318,2.2,2.2,60,0.00,,,0.00,WUHU21623XXSP,2013-03-28 10:08:00,
2013-03-28 06:14:00,43.3,30.4,29.93,WNW,296,1.7,3.6,60,0.00,,,0.00,WUHU21623XXSP,2013-03-28 10:14:00,
2013-03-28 06:21:00,43.2,30.2,29.93,WNW,296,1.1,2.5,60,0.00,,,0.00,WUHU21623XXSP,2013-03-28 10:21:00,
2013-03-28 06:27:00,43.0,30.0,29.94,NNW,341,2.5,2.5,60,0.00,,,0.00,WUHU21623XXSP,2013-03-28 10:27:00,
2013-03-28 06:33:00,43.0,30.4,29.94,NW,318,1.6,2.5,61,0.00,,,0.00,WUHU21623XXSP,2013-03-28 10:33:00,
2013-03-28 06:40:00,43.0,30.4,29.94,WNW,296,2.2,2.2,61,0.00,,,0.00,WUHU21623XXSP,2013-03-28 10:40:00,
2013-03-28 06:46:00,43.0,30.4,29.94,NW,318,2.5,2.5,61,0.00,,,0.00,WUHU21623XXSP,2013-03-28 10:46:00,
2013-03-28 06:53:00,43.0,30.4,29.94,NW,326,1.5,2.5,61,0.00,,,0.00,WUHU21623XXSP,2013-03-28 10:53:00,
2013-03-28 06:59:00,43.0,30.4,29.94,WNW,296,1.8,2.0,61,0.00,,,0.00,WUHU21623XXSP,2013-03-28 10:59:00,
2013-03-28 07:06:00,43.0,30.4,29.94,NW,318,1.3,2.2,61,0.00,,,0.00,WUHU21623XXSP,2013-03-28 11:06:00,
2013-03-28 07:12:00,43.0,30.4,29.95,West,273,1.3,2.2,61,0.00,,,0.00,WUHU21623XXSP,2013-03-28 11:12:00,
2013-03-28 07:19:00,43.0,30.4,29.95,West,273,2.2,2.2,61,0.00,,,0.00,WUHU21623XXSP,2013-03-28 11:19:00,
2013-03-28 07:25:00,43.0,30.4,29.95,NW,318,4.9,4.9,61,0.00,,,0.00,WUHU21623XXSP,2013-03-28 11:25:00,
2013-03-28 07:31:00,43.0,30.4,29.95,NNW,328,2.3,4.9,61,0.00,,,0.00,WUHU21623XXSP,2013-03-28 11:31:00,
2013-03-28 07:38:00,43.0,30.4,29.95,NW,318,1.1,3.6,61,0.00,,,0.00,WUHU21623XXSP,2013-03-28 11:38:00,
2013-03-28 07:44:00,43.2,30.6,29.95,NW,318,2.9,4.5,61,0.00,,,0.00,WUHU21623XXSP,2013-03-28 11:44:00,
2013-03-28 07:53:00,43.2,30.6,29.95,NNW,341,2.0,3.4,61,0.00,,,0.00,WUHU21623XXSP,2013-03-28 11:53:00,
2013-03-28 07:59:00,43.3,30.8,29.95,NW,318,3.1,3.1,61,0.00,,,0.00,WUHU21623XXSP,2013-03-28 11:59:00,
2013-03-28 08:06:00,43.3,30.8,29.96,NNW,341,3.6,3.6,61,0.00,,,0.00,WUHU21623XXSP,2013-03-28 12:06:00,
2013-03-28 08:12:00,43.5,30.8,29.95,NW,318,3.1,5.4,61,0.00,,,0.00,WUHU21623XXSP,2013-03-28 12:12:00,
2013-03-28 08:19:00,43.5,30.9,29.96,West,273,3.8,3.8,61,0.00,,,0.00,WUHU21623XXSP,2013-03-28 12:19:00,
2013-03-28 08:25:00,43.5,30.9,29.96,NW,318,7.8,7.8,61,0.00,,,0.00,WUHU21623XXSP,2013-03-28 12:25:00,
2013-03-28 08:32:00,43.5,30.6,29.96,North,349,4.0,7.8,60,0.00,,,0.00,WUHU21623XXSP,2013-03-28 12:32:00,
2013-03-28 08:38:00,43.5,30.6,29.96,NNW,341,4.0,5.1,60,0.00,,,0.00,WUHU21623XXSP,2013-03-28 12:38:00,
2013-03-28 08:45:00,43.5,30.6,29.96,NNW,341,8.5,8.5,60,0.00,,,0.00,WUHU21623XXSP,2013-03-28 12:45:00,
2013-03-28 08:51:00,43.5,30.6,29.96,NNW,341,7.4,8.5,60,0.00,,,0.00,WUHU21623XXSP,2013-03-28 12:51:00,
2013-03-28 08:57:00,43.7,30.7,29.96,North,3,4.3,7.4,60,0.00,,,0.00,WUHU21623XXSP,2013-03-28 12:57:00,
2013-03-28 09:04:00,43.9,30.9,29.96,NW,318,4.7,8.1,60,0.00,,,0.00,WUHU21623XXSP,2013-03-28 13:04:00,
2013-03-28 09:10:00,43.9,30.5,29.96,NW,318,5.8,8.1,59,0.00,,,0.00,WUHU21623XXSP,2013-03-28 13:10:00,
2013-03-28 09:17:00,44.2,31.3,29.96,NNW,341,8.7,8.7,60,0.00,,,0.00,WUHU21623XXSP,2013-03-28 13:17:00,
2013-03-28 09:23:00,44.4,31.5,29.96,North,3,5.4,8.7,60,0.00,,,0.00,WUHU21623XXSP,2013-03-28 13:23:00,
2013-03-28 09:30:00,44.8,31.8,29.96,NNW,341,8.3,8.3,60,0.00,,,0.00,WUHU21623XXSP,2013-03-28 13:30:00,
2013-03-28 09:36:00,45.1,32.1,29.96,North,3,3.6,8.3,59,0.00,,,0.00,WUHU21623XXSP,2013-03-28 13:36:00,
2013-03-28 09:43:00,45.7,32.2,29.96,NNW,341,4.5,5.8,59,0.00,,,0.00,WUHU21623XXSP,2013-03-28 13:43:00,
2013-03-28 09:49:00,46.6,33.0,29.96,North,3,5.8,7.2,59,0.00,,,0.00,WUHU21623XXSP,2013-03-28 13:49:00,
2013-03-28 09:56:00,47.3,33.2,29.96,NNW,341,6.9,9.2,58,0.00,,,0.00,WUHU21623XXSP,2013-03-28 13:56:00,
2013-03-28 10:02:00,48.0,33.5,29.96,NNW,341,7.6,7.6,57,0.00,,,0.00,WUHU21623XXSP,2013-03-28 14:02:00,
2013-03-28 10:08:00,48.9,34.1,29.96,North,3,7.8,7.8,57,0.00,,,0.00,WUHU21623XXSP,2013-03-28 14:08:00,
2013-03-28 10:14:00,49.6,34.2,29.96,NNW,341,7.6,7.8,55,0.00,,,0.00,WUHU21623XXSP,2013-03-28 14:14:00,
2013-03-28 10:21:00,49.8,34.3,29.97,NNW,341,5.1,7.6,55,0.00,,,0.00,WUHU21623XXSP,2013-03-28 14:21:00,
2013-03-28 10:28:00,49.8,33.8,29.97,NW,318,8.9,8.9,54,0.00,,,0.00,WUHU21623XXSP,2013-03-28 14:28:00,
2013-03-28 10:34:00,49.8,33.8,29.97,NW,318,7.2,10.3,54,0.00,,,0.00,WUHU21623XXSP,2013-03-28 14:34:00,
2013-03-28 10:41:00,49.8,33.4,29.97,NW,318,5.1,10.3,53,0.00,,,0.00,WUHU21623XXSP,2013-03-28 14:41:00,
2013-03-28 10:47:00,50.0,33.5,29.97,NNW,341,7.2,7.2,53,0.00,,,0.00,WUHU21623XXSP,2013-03-28 14:47:00,
2013-03-28 10:53:00,49.8,32.9,29.97,NNE,26,5.8,8.5,52,0.00,,,0.00,WUHU21623XXSP,2013-03-28 14:53:00,
2013-03-28 11:00:00,49.8,32.9,29.97,NW,318,8.5,8.5,52,0.00,,,0.00,WUHU21623XXSP,2013-03-28 15:00:00,
2013-03-28 11:06:00,49.8,32.9,29.97,North,351,8.4,8.9,52,0.00,,,0.00,WUHU21623XXSP,2013-03-28 15:06:00,
2013-03-28 11:12:00,49.8,32.9,29.97,NNW,341,8.1,9.8,53,0.00,,,0.00,WUHU21623XXSP,2013-03-28 15:12:00,
2013-03-28 11:19:00,50.4,33.9,29.97,NW,318,9.8,9.8,53,0.00,,,0.00,WUHU21623XXSP,2013-03-28 15:19:00,
2013-03-28 11:25:00,50.9,34.2,29.97,North,3,9.6,9.8,53,0.00,,,0.00,WUHU21623XXSP,2013-03-28 15:25:00,
2013-03-28 11:32:00,51.3,34.2,29.97,NNW,341,6.9,11.9,52,0.00,,,0.00,WUHU21623XXSP,2013-03-28 15:32:00,
2013-03-28 11:39:00,51.4,34.4,29.97,WNW,296,4.9,7.8,52,0.00,,,0.00,WUHU21623XXSP,2013-03-28 15:39:00,
2013-03-28 11:45:00,51.6,34.5,29.97,North,354,4.0,7.8,52,0.00,,,0.00,WUHU21623XXSP,2013-03-28 15:45:00,
2013-03-28 11:51:00,51.8,34.5,29.97,North,3,6.9,6.9,52,0.00,,,0.00,WUHU21623XXSP,2013-03-28 15:51:00,
2013-03-28 11:58:00,52.0,34.3,29.97,North,3,6.0,6.9,51,0.00,,,0.00,WUHU21623XXSP,2013-03-28 15:58:00,
2013-03-28 12:04:00,52.0,34.9,29.97,NNW,341,4.5,6.0,52,0.00,,,0.00,WUHU21623XXSP,2013-03-28 16:04:00,
2013-03-28 12:11:00,52.3,34.7,29.97,NNW,341,6.5,8.9,51,0.00,,,0.00,WUHU21623XXSP,2013-03-28 16:11:00,
2013-03-28 12:17:00,52.2,34.6,29.97,WNW,296,5.4,8.9,51,0.00,,,0.00,WUHU21623XXSP,2013-03-28 16:17:00,
2013-03-28 12:24:00,51.8,34.3,29.97,North,3,6.0,6.9,51,0.00,,,0.00,WUHU21623XXSP,2013-03-28 16:24:00,
2013-03-28 12:30:00,51.6,34.1,29.97,North,3,4.0,6.9,51,0.00,,,0.00,WUHU21623XXSP,2013-03-28 16:30:00,
2013-03-28 12:36:00,51.4,33.9,29.97,North,3,8.1,8.1,51,0.00,,,0.00,WUHU21623XXSP,2013-03-28 16:36:00,
2013-03-28 12:43:00,51.3,33.8,29.97,North,3,8.5,8.5,51,0.00,,,0.00,WUHU21623XXSP,2013-03-28 16:43:00,
2013-03-28 12:49:00,51.4,33.9,29.97,NNE,26,9.6,9.6,51,0.00,,,0.00,WUHU21623XXSP,2013-03-28 16:49:00,
2013-03-28 12:55:00,51.6,34.1,29.97,North,7,5.6,9.6,51,0.00,,,0.00,WUHU21623XXSP,2013-03-28 16:55:00,
2013-03-28 13:02:00,52.5,35.3,29.97,North,3,5.1,17.9,52,0.00,,,0.00,WUHU21623XXSP,2013-03-28 17:02:00,
2013-03-28 13:09:00,53.4,36.2,29.97,NNW,341,13.2,14.3,52,0.00,,,0.00,WUHU21623XXSP,2013-03-28 17:09:00,
2013-03-28 13:15:00,54.1,36.4,29.97,NNE,26,17.0,17.0,51,0.00,,,0.00,WUHU21623XXSP,2013-03-28 17:15:00,
2013-03-28 13:22:00,54.9,37.0,29.97,North,3,11.2,17.0,51,0.00,,,0.00,WUHU21623XXSP,2013-03-28 17:22:00,
2013-03-28 13:28:00,55.6,37.2,29.97,NNW,341,9.2,11.2,50,0.00,,,0.00,WUHU21623XXSP,2013-03-28 17:28:00,
2013-03-28 13:34:00,55.9,37.6,29.97,North,3,5.1,11.2,50,0.00,,,0.00,WUHU21623XXSP,2013-03-28 17:34:00,
2013-03-28 13:43:00,56.3,37.4,29.97,NNE,26,8.1,8.1,49,0.00,,,0.00,WUHU21623XXSP,2013-03-28 17:43:00,
2013-03-28 13:49:00,56.1,37.2,29.97,NNW,341,6.5,8.1,49,0.00,,,0.00,WUHU21623XXSP,2013-03-28 17:49:00,
2013-03-28 13:56:00,56.5,37.5,29.97,North,349,5.1,7.6,49,0.00,,,0.00,WUHU21623XXSP,2013-03-28 17:56:00,
2013-03-28 14:02:00,57.4,38.1,29.96,NNW,341,2.5,6.3,49,0.00,,,0.00,WUHU21623XXSP,2013-03-28 18:02:00,
2013-03-28 14:08:00,57.6,38.6,29.97,NNE,26,1.8,2.5,49,0.00,,,0.00,WUHU21623XXSP,2013-03-28 18:08:00,
2013-03-28 14:15:00,57.4,37.9,29.96,North,3,8.9,8.9,48,0.00,,,0.00,WUHU21623XXSP,2013-03-28 18:15:00,
2013-03-28 14:22:00,57.0,37.5,29.97,NE,48,5.1,8.9,48,0.00,,,0.00,WUHU21623XXSP,2013-03-28 18:22:00,
2013-03-28 14:28:00,57.6,38.0,29.96,North,3,3.4,5.8,48,0.00,,,0.00,WUHU21623XXSP,2013-03-28 18:28:00,
2013-03-28 14:34:00,57.2,37.1,29.96,North,3,8.3,11.2,47,0.00,,,0.00,WUHU21623XXSP,2013-03-28 18:34:00,
2013-03-28 14:43:00,56.3,36.2,29.96,NNW,341,5.4,12.1,47,0.00,,,0.00,WUHU21623XXSP,2013-03-28 18:43:00,
2013-03-28 14:49:00,55.8,35.9,29.97,NNE,26,17.0,17.0,48,0.00,,,0.00,WUHU21623XXSP,2013-03-28 18:49:00,
2013-03-28 14:58:00,55.4,35.9,29.96,North,3,12.1,17.0,48,0.00,,,0.00,WUHU21623XXSP,2013-03-28 18:58:00,
2013-03-28 15:04:00,55.2,35.8,29.96,North,3,4.3,12.1,48,0.00,,,0.00,WUHU21623XXSP,2013-03-28 19:04:00,
2013-03-28 15:11:00,55.2,36.3,29.96,North,3,7.2,7.2,49,0.00,,,0.00,WUHU21623XXSP,2013-03-28 19:11:00,
2013-03-28 15:17:00,55.2,35.8,29.95,NNW,341,6.0,7.2,48,0.00,,,0.00,WUHU21623XXSP,2013-03-28 19:17:00,
2013-03-28 15:24:00,55.0,35.6,29.96,North,3,4.7,7.6,48,0.00,,,0.00,WUHU21623XXSP,2013-03-28 19:24:00,
2013-03-28 15:30:00,54.7,35.3,29.96,NNW,341,4.9,8.9,48,0.00,,,0.00,WUHU21623XXSP,2013-03-28 19:30:00,
2013-03-28 15:37:00,54.3,35.1,29.96,NNW,341,7.6,8.9,48,0.00,,,0.00,WUHU21623XXSP,2013-03-28 19:37:00,
2013-03-28 15:43:00,54.1,35.3,29.96,NE,48,3.8,13.0,49,0.00,,,0.00,WUHU21623XXSP,2013-03-28 19:43:00,
2013-03-28 15:50:00,54.0,35.2,29.96,NNW,341,4.9,13.6,49,0.00,,,0.00,WUHU21623XXSP,2013-03-28 19:50:00,
2013-03-28 15:56:00,53.8,35.0,29.97,NNW,341,11.2,13.6,49,0.00,,,0.00,WUHU21623XXSP,2013-03-28 19:56:00,
2013-03-28 16:02:00,53.4,34.7,29.97,NNW,341,5.4,11.2,50,0.00,,,0.00,WUHU21623XXSP,2013-03-28 20:02:00,
2013-03-28 16:09:00,52.9,35.2,29.97,NNW,341,7.4,7.4,51,0.00,,,0.00,WUHU21623XXSP,2013-03-28 20:09:00,
2013-03-28 16:15:00,52.3,35.2,29.97,North,3,6.3,7.4,52,0.00,,,0.00,WUHU21623XXSP,2013-03-28 20:15:00,
2013-03-28 16:22:00,52.3,35.2,29.97,North,3,5.8,6.3,52,0.00,,,0.00,WUHU21623XXSP,2013-03-28 20:22:00,
2013-03-28 16:28:00,52.3,35.2,29.97,NNW,341,4.0,5.8,52,0.00,,,0.00,WUHU21623XXSP,2013-03-28 20:28:00,
2013-03-28 16:35:00,52.0,34.9,29.97,North,3,2.5,4.5,52,0.00,,,0.00,WUHU21623XXSP,2013-03-28 20:35:00,
2013-03-28 16:41:00,52.0,34.9,29.97,North,3,6.9,6.9,52,0.00,,,0.00,WUHU21623XXSP,2013-03-28 20:41:00,
2013-03-28 16:48:00,51.6,34.5,29.97,NNW,341,2.7,7.2,52,0.00,,,0.00,WUHU21623XXSP,2013-03-28 20:48:00,
2013-03-28 16:54:00,51.6,34.5,29.97,NNW,341,4.9,5.8,52,0.00,,,0.00,WUHU21623XXSP,2013-03-28 20:54:00,
2013-03-28 17:00:00,51.4,34.4,29.97,NW,318,9.8,9.8,52,0.00,,,0.00,WUHU21623XXSP,2013-03-28 21:00:00,
2013-03-28 17:07:00,51.4,34.4,29.97,NW,318,10.3,10.3,52,0.00,,,0.00,WUHU21623XXSP,2013-03-28 21:07:00,
2013-03-28 17:13:00,51.3,34.2,29.98,North,3,6.0,10.3,52,0.00,,,0.00,WUHU21623XXSP,2013-03-28 21:13:00,
2013-03-28 17:20:00,51.3,34.2,29.98,NNE,26,3.6,7.6,52,0.00,,,0.00,WUHU21623XXSP,2013-03-28 21:20:00,
2013-03-28 17:26:00,51.3,34.2,29.98,NW,318,9.2,9.2,52,0.00,,,0.00,WUHU21623XXSP,2013-03-28 21:26:00,
2013-03-28 17:32:00,51.1,34.1,29.98,North,3,3.8,9.2,51,0.00,,,0.00,WUHU21623XXSP,2013-03-28 21:32:00,
2013-03-28 17:39:00,50.9,33.9,29.98,NNW,341,8.5,8.5,52,0.00,,,0.00,WUHU21623XXSP,2013-03-28 21:39:00,
2013-03-28 17:45:00,50.7,33.7,29.98,NNW,341,8.9,9.4,52,0.00,,,0.00,WUHU21623XXSP,2013-03-28 21:45:00,
2013-03-28 17:52:00,50.7,33.7,29.98,NNW,341,4.5,9.4,52,0.00,,,0.00,WUHU21623XXSP,2013-03-28 21:52:00,
2013-03-28 17:59:00,50.7,33.7,29.99,North,3,4.3,4.5,52,0.00,,,0.00,WUHU21623XXSP,2013-03-28 21:59:00,
2013-03-28 18:05:00,50.7,33.7,29.99,NNW,341,8.7,8.7,52,0.00,,,0.00,WUHU21623XXSP,2013-03-28 22:05:00,
2013-03-28 18:11:00,50.7,33.7,29.99,NNW,341,6.0,9.6,52,0.00,,,0.00,WUHU21623XXSP,2013-03-28 22:11:00,
2013-03-28 18:18:00,50.7,33.7,29.99,NW,318,5.1,9.6,52,0.00,,,0.00,WUHU21623XXSP,2013-03-28 22:18:00,
2013-03-28 18:24:00,50.7,33.7,29.99,NNW,341,7.2,7.2,52,0.00,,,0.00,WUHU21623XXSP,2013-03-28 22:24:00,
2013-03-28 18:30:00,50.5,33.6,30.00,NNW,341,8.1,8.1,52,0.00,,,0.00,WUHU21623XXSP,2013-03-28 22:30:00,
2013-03-28 18:37:00,50.5,33.6,30.00,NNW,341,6.7,8.3,52,0.00,,,0.00,WUHU21623XXSP,2013-03-28 22:37:00,
2013-03-28 18:44:00,50.4,33.4,30.01,NNW,341,4.3,8.3,52,0.00,,,0.00,WUHU21623XXSP,2013-03-28 22:44:00,
2013-03-28 18:50:00,50.4,33.4,30.00,NNW,341,1.8,7.8,52,0.00,,,0.00,WUHU21623XXSP,2013-03-28 22:50:00,
2013-03-28 18:56:00,50.4,33.4,30.01,NNW,341,6.7,6.9,52,0.00,,,0.00,WUHU21623XXSP,2013-03-28 22:56:00,
2013-03-28 19:03:00,50.4,33.4,30.01,North,350,3.0,6.7,52,0.00,,,0.00,WUHU21623XXSP,2013-03-28 23:03:00,
2013-03-28 19:09:00,50.4,33.4,30.01,NNW,341,4.3,5.4,52,0.00,,,0.00,WUHU21623XXSP,2013-03-28 23:09:00,
2013-03-28 19:16:00,50.4,33.9,30.01,West,273,1.8,5.4,53,0.00,,,0.00,WUHU21623XXSP,2013-03-28 23:16:00,
2013-03-28 19:22:00,50.4,33.4,30.01,NNW,341,5.1,5.1,52,0.00,,,0.00,WUHU21623XXSP,2013-03-28 23:22:00,
2013-03-28 19:29:00,50.2,33.2,30.01,NNW,341,8.9,8.9,52,0.00,,,0.00,WUHU21623XXSP,2013-03-28 23:29:00,
2013-03-28 19:35:00,49.8,32.9,30.02,NW,318,5.4,8.9,52,0.00,,,0.00,WUHU21623XXSP,2013-03-28 23:35:00,
2013-03-28 19:42:00,49.8,32.9,30.02,WNW,296,2.9,6.0,52,0.00,,,0.00,WUHU21623XXSP,2013-03-28 23:42:00,
2013-03-28 19:48:00,49.8,32.9,30.02,NW,318,4.0,4.5,52,0.00,,,0.00,WUHU21623XXSP,2013-03-28 23:48:00,
2013-03-28 19:54:00,49.6,32.9,30.02,NNW,341,2.7,4.0,52,0.00,,,0.00,WUHU21623XXSP,2013-03-28 23:54:00,
2013-03-28 20:01:00,49.6,32.7,30.03,NW,318,2.7,7.8,52,0.00,,,0.00,WUHU21623XXSP,2013-03-29 00:01:00,
2013-03-28 20:07:00,49.6,32.7,30.03,NNW,341,10.3,12.1,52,0.00,,,0.00,WUHU21623XXSP,2013-03-29 00:07:00,
2013-03-28 20:14:00,49.6,32.7,30.03,WNW,296,2.5,10.3,52,0.00,,,0.00,WUHU21623XXSP,2013-03-29 00:14:00,
2013-03-28 20:20:00,49.6,32.7,30.03,NW,318,8.5,12.3,52,0.00,,,0.00,WUHU21623XXSP,2013-03-29 00:20:00,
2013-03-28 20:27:00,49.5,32.5,30.03,NNW,341,9.6,12.3,52,0.00,,,0.00,WUHU21623XXSP,2013-03-29 00:27:00,
2013-03-28 20:33:00,49.3,32.4,30.04,NNW,341,3.8,9.6,52,0.00,,,0.00,WUHU21623XXSP,2013-03-29 00:33:00,
2013-03-28 20:39:00,49.3,32.4,30.04,NNW,341,3.6,6.7,52,0.00,,,0.00,WUHU21623XXSP,2013-03-29 00:39:00,
2013-03-28 20:46:00,49.5,32.7,30.03,NNW,341,5.4,5.4,52,0.00,,,0.00,WUHU21623XXSP,2013-03-29 00:46:00,
2013-03-28 20:52:00,49.3,32.4,30.04,NNW,341,2.9,5.4,52,0.00,,,0.00,WUHU21623XXSP,2013-03-29 00:52:00,
2013-03-28 20:59:00,49.3,32.4,30.04,West,273,5.8,5.8,52,0.00,,,0.00,WUHU21623XXSP,2013-03-29 00:59:00,
2013-03-28 21:05:00,49.3,32.8,30.04,NW,318,3.8,5.8,53,0.00,,,0.00,WUHU21623XXSP,2013-03-29 01:05:00,
2013-03-28 21:12:00,49.3,32.4,30.04,NNW,341,10.3,10.3,52,0.00,,,0.00,WUHU21623XXSP,2013-03-29 01:12:00,
2013-03-28 21:18:00,49.3,32.8,30.05,NNW,341,7.8,10.3,53,0.00,,,0.00,WUHU21623XXSP,2013-03-29 01:18:00,
2013-03-28 21:24:00,49.3,32.4,30.05,NNW,341,3.6,7.8,52,0.00,,,0.00,WUHU21623XXSP,2013-03-29 01:24:00,
2013-03-28 21:33:00,49.1,32.6,30.06,NNW,341,5.6,6.5,53,0.00,,,0.00,WUHU21623XXSP,2013-03-29 01:33:00,
2013-03-28 21:39:00,49.1,32.6,30.06,NNW,341,4.0,6.3,53,0.00,,,0.00,WUHU21623XXSP,2013-03-29 01:39:00,
2013-03-28 21:46:00,49.1,32.6,30.07,NNW,341,5.1,5.1,53,0.00,,,0.00,WUHU21623XXSP,2013-03-29 01:46:00,
2013-03-28 21:52:00,49.1,32.6,30.07,North,3,6.0,6.3,53,0.00,,,0.00,WUHU21623XXSP,2013-03-29 01:52:00,
2013-03-28 21:59:00,48.9,32.5,30.07,North,3,6.3,6.3,53,0.00,,,0.00,WUHU21623XXSP,2013-03-29 01:59:00,
2013-03-28 22:05:00,48.9,32.3,30.07,NNW,341,7.2,7.2,53,0.00,,,0.00,WUHU21623XXSP,2013-03-29 02:05:00,
2013-03-28 22:12:00,48.7,32.3,30.07,NNW,341,7.4,7.8,53,0.00,,,0.00,WUHU21623XXSP,2013-03-29 02:12:00,
2013-03-28 22:18:00,48.7,32.3,30.07,North,3,3.1,7.4,53,0.00,,,0.00,WUHU21623XXSP,2013-03-29 02:18:00,
2013-03-28 22:25:00,48.7,32.3,30.07,NW,318,1.8,3.1,53,0.00,,,0.00,WUHU21623XXSP,2013-03-29 02:25:00,
2013-03-28 22:31:00,48.7,32.3,30.07,NNW,341,5.4,5.4,53,0.00,,,0.00,WUHU21623XXSP,2013-03-29 02:31:00,
2013-03-28 22:38:00,48.7,32.8,30.07,NNW,341,3.1,5.4,54,0.00,,,0.00,WUHU21623XXSP,2013-03-29 02:38:00,
2013-03-28 22:44:00,48.7,32.3,30.07,NNW,341,2.2,4.3,53,0.00,,,0.00,WUHU21623XXSP,2013-03-29 02:44:00,
2013-03-28 22:50:00,48.7,32.3,30.07,NNW,341,4.7,6.0,53,0.00,,,0.00,WUHU21623XXSP,2013-03-29 02:50:00,
2013-03-28 22:57:00,48.6,32.1,30.07,NNW,341,3.4,6.0,53,0.00,,,0.00,WUHU21623XXSP,2013-03-29 02:57:00,
2013-03-28 23:03:00,48.6,32.6,30.07,NNW,341,5.6,5.6,54,0.00,,,0.00,WUHU21623XXSP,2013-03-29 03:03:00,
2013-03-28 23:10:00,48.4,32.4,30.07,NW,318,2.9,5.6,54,0.00,,,0.00,WUHU21623XXSP,2013-03-29 03:10:00,
2013-03-28 23:17:00,48.4,32.4,30.07,NW,318,3.6,3.6,54,0.00,,,0.00,WUHU21623XXSP,2013-03-29 03:17:00,
2013-03-28 23:23:00,48.4,32.4,30.07,NNW,341,2.2,3.6,54,0.00,,,0.00,WUHU21623XXSP,2013-03-29 03:23:00,
2013-03-28 23:29:00,48.4,32.4,30.07,NNW,341,4.9,4.9,54,0.00,,,0.00,WUHU21623XXSP,2013-03-29 03:29:00,
2013-03-28 23:36:00,48.2,32.3,30.07,NW,318,3.6,5.4,54,0.00,,,0.00,WUHU21623XXSP,2013-03-29 03:36:00,
2013-03-28 23:42:00,48.0,32.1,30.07,NW,318,1.6,5.4,54,0.00,,,0.00,WUHU21623XXSP,2013-03-29 03:42:00,
2013-03-28 23:48:00,48.0,32.1,30.07,NNW,341,4.3,4.3,54,0.00,,,0.00,WUHU21623XXSP,2013-03-29 03:48:00,
2013-03-28 23:55:00,48.0,32.1,30.07,NW,318,1.8,4.3,54,0.00,,,0.00,WUHU21623XXSP,2013-03-29 03:55:00,